Location: Maignaut
(43.8886°N, 0.4051°E)
Time: 18:14:56
(UTC+00:00)

Meteor 1-5 Rocket - Pass Details

Date: 27 February 2020
Orbit: 790 x 915 km, 81.2° (Epoch: 31 March)

Event Time Altitude Azimuth Distance (km) Brightness Sun altitude
Rises 19:50:02 0° 187° (S) 3,322 7.3 -23.5°
Reaches altitude 10° 19:52:22 10° 187° (S) 2,410 6.5 -23.9°
Maximum altitude 19:57:50 87° 100° (E) 848 4.0 -24.9°
Drops below altitude 10° 20:03:33 10° 11° (N) 2,512 6.7 -25.9°
Sets 20:06:02 0° 11° (N) 3,473 7.4 -26.3°
